Regional Weather Roundup
Issued by NWS Little Rock, AR

Home | Current Version | Previous Version | Graphics & Text | Print | Product List | Glossary On
Versions: 1 2 3 4 5 6 7 8 9 10 11 12 13 14 15 16 17 18 19 20 21 22 23 24 25 26 27 28 29 30 31 32 33 34 35 36 37 38 39 40 41 42 43 44 45 46 47 48 49 50
419
ASUS44 KLZK 060505
RWRLZK

WEATHER ROUNDUP FOR ARKANSAS
NATIONAL WEATHER SERVICE LITTLE ROCK AR
1200 AM CDT FRI MAY 06 2016

NOTE: "FAIR" INDICATES FEW OR NO CLOUDS BELOW 12,000 FEET WITH NO
SIGNIFICANT WEATHER AND/OR OBSTRUCTIONS TO VISIBILITY.

ARZ001-003-010-029-060600-
NORTHWEST ARKANSAS

CITY           SKY/WX    TMP DP  RH WIND       PRES   REMARKS
FAYETTEVILLE   CLEAR     48  46  93 CALM      30.08R
FORT SMITH     CLEAR     60  48  64 CALM      30.05R
HARRISON       CLEAR     49  37  63 CALM      30.07R
BENTONVILLE    CLEAR     52  43  71 CALM      30.08R
ROGERS         CLEAR     52  43  71 CALM      30.08R
SILOAM SPGS    CLEAR     54  39  58 CALM      30.08R
HIGHFILL       CLEAR     52  44  74 CALM      30.07R
$$

ARZ004-005-016-060600-
NORTH CENTRAL ARKANSAS

CITY           SKY/WX    TMP DP  RH WIND       PRES   REMARKS
BATESVILLE     CLEAR     55  39  54 CALM      30.07R
FLIPPIN        CLEAR    N/A N/A N/A CALM      30.03R
MTN HOME       CLEAR     52  36  54 NE3       30.05R
$$

ARZ040-041-060600-
WEST CENTRAL ARKANSAS

CITY           SKY/WX    TMP DP  RH WIND       PRES   REMARKS
MENA           CLEAR     52  50  93 CALM      30.06R
MOUNT IDA      CLEAR     53  49  86 CALM      30.02R
$$

ARZ009-017-025-026-028-060600-
NORTHEAST ARKANSAS

CITY           SKY/WX    TMP DP  RH WIND       PRES   REMARKS
CORNING          N/A     54  48  82 NW3       30.05R
JONESBORO      CLEAR     54  46  74 NE3       30.04R
NEWPORT        CLEAR     56  46  69 E3        30.06R
WALNUT RIDGE   CLEAR     55  43  62 CALM      30.03S
BLYTHEVILLE    CLEAR     53  46  77 CALM      30.04S
$$

ARZ022-023-033-042-044-060600-
CENTRAL ARKANSAS

CITY           SKY/WX    TMP DP  RH WIND       PRES   REMARKS
LITTLE ROCK    CLEAR     61  38  42 N7        30.03R
JACKSONVILLE   CLEAR     53  45  74 VRB5      30.03R
SEARCY         CLEAR     58  45  62 E7        30.07R
HOT SPRINGS    CLEAR     56  49  77 CALM      30.04R
RUSSELLVILLE   CLEAR     54  46  74 CALM      30.04R
CLINTON        FAIR      46  45  93 CALM      30.06R FOG
$$

ARZ036-060600-
EAST ARKANSAS

CITY           SKY/WX    TMP DP  RH WIND       PRES   REMARKS
WEST MEMPHIS   CLEAR     53  46  77 NE3       30.03R
$$

ARZ050-053-066-070-073-060600-
SOUTHWEST ARKANSAS

CITY           SKY/WX    TMP DP  RH WIND       PRES   REMARKS
ARKADELPHIA    FAIR      61  59  93 CALM      30.04R
CAMDEN         PTCLDY    54  50  87 CALM      30.02R
TEXARKANA      CLEAR     64  48  56 N5        30.02S
EL DORADO      PTCLDY    55  52  89 CALM      30.01R
DE QUEEN       CLEAR     54  53  97 CALM      30.02S
$$

ARZ056-057-069-060600-
SOUTHEAST ARKANSAS

CITY           SKY/WX    TMP DP  RH WIND       PRES   REMARKS
PINE BLUFF     CLEAR     55  51  86 CALM      30.02R
STUTTGART      CLEAR     61  45  55 NE8       30.04R
MONTICELLO     CLEAR     53  49  86 CALM      30.01S

$$






USA.gov is the U.S. government's official web portal to all federal, state and local government web resources and services.